Eagle, AK

3:52 PM AKDT on September 24, 2016 (GMT -0800)
Eagle

Weather History for PAEG - February, 2014

Change the Weather History Date:

Monday, February 17, 2014

  Actual Average (PABN) Record (PABN)
Temperature  
Mean Temperature -21 °F -  
Max Temperature -11 °F 13 °F 68 °F (2009)
Min Temperature -31 °F 3 °F -18 °F (2011)
Degree Days  
Heating Degree Days 86    
Moisture  
Dew Point -24 °F    
Average Humidity 72    
Maximum Humidity 75    
Minimum Humidity 68    
Precipitation  
Precipitation 0.00 in - - ()
Sea Level Pressure  
Sea Level Pressure 29.52 in    
Wind  
Wind Speed 0 mph (WSW)    
Max Wind Speed 4 mph    
Max Gust Speed -    
Visibility 8 miles    
Events Snow    
Averages and records for this station are not official NWS values.
T = Trace of Precipitation, MM = Missing Value Source: NWS Daily Summary

Daily Weather History Graph

Daily Weather History Graph

Search for Another Location

Airport or City:

Trip Planner

Search our weather history database for the weather conditions in past years. The results will help you decide how hot, cold, wet, or windy it might be!

Date:

Astronomy

Feb. 17, 2014 Rise Set
Actual Time 8:15 AM AKST 5:03 PM AKST
Civil Twilight 7:23 AM AKST 5:55 PM AKST
Nautical Twilight 6:26 AM AKST 6:52 PM AKST
Astronomical Twilight 5:30 AM AKST 7:48 PM AKST
Moon 9:30 PM AKST (2/17) 8:07 AM AKST (2/17)
Length of Visible Light 10h 31m
Length of Day
8h 47m
Waning Gibbous, 92% of the Moon is Illuminated
Feb 17
Waning Gibbous
Feb 22
Last Quarter
Feb 28
New
Mar 8
First Quarter
Mar 16
Full

Hourly Weather History & Observations

Time (AKST) Temp. Windchill Dew Point Humidity Pressure Visibility Wind Dir Wind Speed Gust Speed Precip Events Conditions
12:28 AM -23.1 °F - -29.0 °F 74% 29.36 in 10.0 mi Calm Calm - N/A   Mostly Cloudy
12:53 AM -24.0 °F - -29.9 °F 74% 29.46 in 10.0 mi Calm Calm - N/A   Overcast
1:24 AM -24.0 °F - -29.9 °F 74% 29.37 in 10.0 mi Calm Calm - N/A   Overcast
1:53 AM -24.0 °F - -29.9 °F 74% 29.47 in 10.0 mi Calm Calm - N/A   Overcast
2:29 AM -24.0 °F - -29.9 °F 74% 29.38 in 10.0 mi Calm Calm - N/A   Overcast
3:06 AM -26.0 °F - -32.1 °F 73% 29.38 in 10.0 mi Calm Calm - N/A   Mostly Cloudy
3:53 AM -27.0 °F - -34.1 °F 69% 29.48 in 10.0 mi Calm Calm - N/A   Overcast
4:53 AM -27.9 °F - -34.1 °F 73% 29.49 in 10.0 mi Calm Calm - N/A   Scattered Clouds
5:53 AM -29.0 °F - -35.0 °F 73% 29.50 in 10.0 mi Calm Calm - N/A   Clear
6:53 AM -29.9 °F - - N/A% 29.51 in 10.0 mi Calm Calm - N/A   Clear
7:53 AM -29.9 °F -42.0 °F - N/A% 29.52 in 10.0 mi West 3.5 mph - N/A   Clear
8:53 AM -31.0 °F -43.3 °F - N/A% 29.53 in 10.0 mi WSW 3.5 mph - N/A   Clear
9:53 AM -29.0 °F - -36.0 °F 69% 29.54 in 10.0 mi Calm Calm - N/A   Clear
10:29 AM -26.0 °F - -32.1 °F 73% 29.43 in 10.0 mi Calm Calm - N/A   Mostly Cloudy
10:53 AM -23.1 °F - -29.9 °F 70% 29.55 in 10.0 mi Calm Calm - N/A   Overcast
11:53 AM -18.0 °F - -25.1 °F 70% 29.55 in 10.0 mi Calm Calm - N/A   Scattered Clouds
12:53 PM -14.1 °F - -20.9 °F 71% 29.54 in 10.0 mi Calm Calm - N/A   Clear
1:53 PM -13.0 °F - -20.9 °F 68% 29.54 in 10.0 mi Calm Calm - N/A   Clear
2:53 PM -11.9 °F - -18.9 °F 71% 29.55 in 10.0 mi Calm Calm - N/A   Clear
3:53 PM -11.0 °F - -18.9 °F 68% 29.55 in 10.0 mi Calm Calm - N/A   Scattered Clouds
4:53 PM -11.0 °F - -18.9 °F 68% 29.56 in 10.0 mi Calm Calm - N/A   Overcast
5:53 PM -11.0 °F - -18.9 °F 68% 29.57 in 10.0 mi Calm Calm - N/A   Overcast
6:53 PM -11.0 °F - -18.9 °F 68% 29.59 in 5.0 mi Calm Calm - 0.00 in Snow Light Snow
7:53 PM -11.9 °F - -18.0 °F 74% 29.60 in 7.0 mi Calm Calm - 0.00 in   Overcast
8:53 PM -11.9 °F - -18.0 °F 74% 29.61 in 4.0 mi Calm Calm - 0.00 in Snow Light Snow
9:53 PM -11.0 °F - -18.0 °F 71% 29.62 in 5.0 mi Calm Calm - 0.00 in   Haze
10:21 PM -11.0 °F - -17.0 °F 75% 29.52 in 2.5 mi Calm Calm - 0.00 in Snow Light Snow
10:39 PM -11.0 °F - -18.0 °F 71% 29.53 in 3.0 mi Calm Calm - 0.00 in Snow Light Snow
10:53 PM -11.9 °F - -18.0 °F 74% 29.63 in 2.5 mi Calm Calm - 0.00 in Snow Light Snow
11:20 PM -11.0 °F - -17.0 °F 75% 29.53 in 2.0 mi Calm Calm - 0.00 in Snow Light Snow
11:31 PM -11.0 °F - -18.0 °F 71% 29.53 in 2.5 mi Calm Calm - 0.00 in Snow Light Snow
11:45 PM -11.0 °F - -17.0 °F 75% 29.53 in 3.0 mi Calm Calm - 0.00 in Snow Light Snow
11:53 PM -11.0 °F - -18.0 °F 71% 29.63 in 3.0 mi Calm Calm - 0.00 in Snow Light Snow